This demonstration page uses our WeatherBlox Daily Observations layout. Learn more.

Left ArrowRight Arrow

44.8408, -93.29828

Hourly Observations for September 20, 2018

Temp ( °F °C ) Dew Point ( °F °C ) Humidity (%) Winds ( mph kmh ) Pressure ( in mb ) Visibility ( mi km ) Precip ( " mm )
12:53 am 00:53 Cloudy with Mist and Fog 59 15 58 14.4 96 96 NE 9 15 29.99 1016 5 8 0.00 0.00
1:24 am 01:24 Cloudy with Mist and Fog 59 15 59 15 100 100 NNE 7 11 29.97 1015 6 10 0.00 0.00
1:53 am 01:53 Cloudy with Mist and Fog 59 15 58 14.4 96 96 NNE 8 13 30.00 1016 6 10 0.00 0.00
2:21 am 02:21 Cloudy with Mist and Fog 59 15 59 15 100 100 NE 9 15 29.97 1015 4 6 0.00 0.00
2:53 am 02:53 Cloudy with Mist and Fog 59 15 59 15 100 100 NE 8 13 29.98 1015 5 8 0.00 0.00
3:53 am 03:53 Cloudy with Light Rain 59 15 59 15 100 100 ENE 8 13 29.97 1015 3 5 0.00 0.03
4:53 am 04:53 Cloudy with Light Rain 60 15.6 60 15.6 100 100 NE 8 13 29.94 1014 4 6 0.06 1.52
5:30 am 05:30 Cloudy with Light Rain 60 15.6 60 15.6 100 100 ENE 8 13 29.94 1014 5 8 0.01 0.25
5:53 am 05:53 Cloudy with Light Rain 60 15.6 60 15.6 100 100 E 10 17 29.92 1013 8 13 0.03 0.76
6:12 am 06:12 Cloudy with Light Rain 61 16.1 61 16.1 100 100 ESE 6 9 29.94 1014 10 16 0.01 0.25
6:28 am 06:28 Cloudy with Light Rain 61 16.1 61 16.1 100 100 Calm 29.94 1014 7 11 0.01 0.25
6:53 am 06:53 Cloudy with Rain 61 16.1 61 16.1 100 100 N 7 11 29.96 1015 5 8 0.06 1.52
7:44 am 07:44 Cloudy with Rain 60 15.6 60 15.6 100 100 NE 7 11 29.94 1014 5 8 0.11 2.79
7:53 am 07:53 Cloudy with Rain 60 15.6 60 15.6 100 100 ENE 6 9 29.97 1015 7 11 0.13 3.30
8:25 am 08:25 Cloudy with Rain 61 16.1 61 16.1 100 100 E 9 15 29.94 1014 7 11 0.07 1.78
8:53 am 08:53 Cloudy with Light Rain 61 16.1 61 16.1 100 100 NE 7 11 29.93 1013 8 13 0.10 2.54
9:43 am 09:43 Cloudy with Light Rain 62 16.7 61 16.1 96 96 NE 7 11 29.94 1014 7 11 0.04 1.02
9:53 am 09:53 Cloudy with Light Rain 62 16.7 62 16.7 100 100 ENE 5 7 29.95 1014 8 13 0.05 1.27
10:11 am 10:11 Cloudy with Light Rain 62 16.7 62 16.7 100 100 E 8 13 29.94 1014 8 13 0.01 0.25
10:20 am 10:20 Cloudy with Light Rain 62 16.7 62 16.7 100 100 E 7 11 29.94 1014 6 10 0.01 0.25
10:53 am 10:53 Cloudy with Light Rain 62 16.7 62 16.7 100 100 ENE 6 9 29.92 1013 8 13 0.07 1.78
11:35 am 11:35 Cloudy with Light Rain 64 17.8 64 17.8 100 100 E 16 26 29.83 1010 10 16 0.02 0.51
11:53 am 11:53 Cloudy with Light Rain 64 17.8 64 17.8 100 100 E 14 22 29.83 1010 10 16 0.03 0.76
12:00 pm 12:00 Cloudy with Light Rain 64 17.8 64 17.8 100 100 E 13 20 29.83 1010 10 16 0.00 0.03
12:53 pm 12:53 Cloudy 65 18.3 64 17.8 97 97 E 16 26 29.78 1009 10 16 0.00 0.03
1:18 pm 13:18 Cloudy with Nearby Thunderstorms 65 18.3 64 17.8 97 97 ENE 12 19 29.77 1008 10 16 0.05 1.27
1:27 pm 13:27 Cloudy with Thunderstorms 65 18.3 64 17.8 97 97 N 10 17 29.80 1009 10 16 0.05 1.27
1:47 pm 13:47 Cloudy with Strong Thunderstorms 64 18 64 18 100 100 ESE 20 31 29.80 1009 1 2 0.21 5.33
1:53 pm 13:53 Cloudy with Strong Thunderstorms 65 18.3 64 17.8 97 97 ESE 30 48 29.72 1007 1 1 0.56 14.22
2:01 pm 14:01 Cloudy with Strong Thunderstorms 66 18.9 64 17.8 93 93 E 26 43 29.71 1006 5 8 0.23 5.84
2:17 pm 14:17 Cloudy with Nearby Thunderstorms 67 19.4 63 17.2 87 87 ESE 17 28 29.71 1006 8 13 0.26 6.60
2:35 pm 14:35 Cloudy 66 18.9 63 17.2 90 90 ESE 15 24 29.71 1006 10 16 0.27 6.86
2:53 pm 14:53 Cloudy with Light Rain 66 18.9 64 17.8 93 93 ESE 9 15 29.73 1007 7 11 0.35 8.89
2:56 pm 14:56 Cloudy with Nearby Thunderstorms 66 18.9 64 17.8 93 93 SE 15 24 29.74 1007 3 5 0.03 0.76
2:58 pm 14:58 Cloudy with Nearby Thunderstorms 66 18.9 64 17.8 93 93 SE 17 28 29.74 1007 2 3 0.08 2.03
3:01 pm 15:01 Cloudy with Nearby Thunderstorms 65 18.3 64 17.8 97 97 SE 18 30 29.74 1007 1 1 0.14 3.56
3:07 pm 15:07 Cloudy with Strong Thunderstorms 65 18.3 64 17.8 97 97 ESE 18 30 29.71 1006 1 2 0.23 5.84
3:12 pm 15:12 Cloudy with Strong Thunderstorms 64 17.8 64 17.8 100 100 ESE 14 22 29.71 1006 2 3 0.30 7.62
3:18 pm 15:18 Cloudy with Strong Thunderstorms 64 17.8 64 17.8 100 100 ESE 9 15 29.71 1006 2 3 0.34 8.64
3:31 pm 15:31 Cloudy with Strong Thunderstorms 64 17.8 64 17.8 100 100 E 15 24 29.68 1005 2 3 0.50 12.70
3:36 pm 15:36 Cloudy with Thunderstorms 65 18.3 64 17.8 97 97 ESE 14 22 29.68 1005 5 8 0.54 13.72
3:53 pm 15:53 Cloudy with Nearby Thunderstorms 65 18.3 64 17.8 97 97 ESE 20 31 29.64 1004 7 11 0.61 15.49
4:11 pm 16:11 Cloudy 66 18.9 65 18.3 96 96 E 9 15 29.65 1004 10 16 0.00 0.03
4:39 pm 16:39 Cloudy 66 18.9 65 18.3 96 96 NNE 8 13 29.62 1003 10 16 0.00 0.03
4:45 pm 16:45 Cloudy with Light Rain 65 18.3 65 18.3 100 100 NNW 9 15 29.62 1003 10 16 0.00 0.03
4:53 pm 16:53 Cloudy with Nearby Thunderstorms 65 18.3 64 17.8 97 97 N 12 19 29.61 1003 10 16 0.01 0.25
4:56 pm 16:56 Cloudy with Thunderstorms 65 18.3 64 17.8 97 97 NNE 10 17 29.62 1003 2 3 0.00 0.03
5:05 pm 17:05 Cloudy with Strong Thunderstorms 65 18.3 64 17.8 97 97 E 12 19 29.62 1003 1 2 0.14 3.56
5:18 pm 17:18 Cloudy with Thunderstorms 64 17.8 64 17.8 100 100 N 18 30 29.59 1002 4 6 0.47 11.94
5:23 pm 17:23 Cloudy with Thunderstorms 65 18.3 64 17.8 97 97 E 17 28 29.56 1001 4 6 0.49 12.45
5:31 pm 17:31 Cloudy with Thunderstorms 65 18.3 64 17.8 97 97 E 17 28 29.59 1002 6 10 0.50 12.70
5:36 pm 17:36 Cloudy with Thunderstorms 65 18.3 64 17.8 97 97 E 17 28 29.56 1001 5 8 0.50 12.70
5:45 pm 17:45 Cloudy with Nearby Thunderstorms 66 18.9 64 17.8 93 93 E 28 44 29.47 998 3 4 0.50 12.70
5:53 pm 17:53 Cloudy with Nearby Thunderstorms 65 18.3 65 18.3 100 100 SE 18 30 29.52 1000 2 2 0.50 12.70
5:59 pm 17:59 Windy with Storms Likely 65 18.3 65 18.3 100 100 ESE 23 37 29.50 999 2 3 0.01 0.25
6:05 pm 18:05 Windy with Storms Likely 65 18.3 65 18.3 100 100 E 21 33 29.50 999 2 3 0.01 0.25
6:16 pm 18:16 Cloudy with Light Rain 65 18.3 65 18.3 100 100 E 10 17 29.50 999 2 3 0.01 0.25
6:22 pm 18:22 Cloudy with Light Rain 65 18.3 65 18.3 100 100 E 15 24 29.47 998 4 6 0.01 0.25
6:35 pm 18:35 Cloudy with Nearby Thunderstorms 66 18.9 65 18.3 96 96 ESE 18 30 29.47 998 9 14 0.01 0.25
6:41 pm 18:41 Cloudy with Thunderstorms 66 18.9 65 18.3 96 96 E 14 22 29.47 998 10 16 0.01 0.25
6:48 pm 18:48 Cloudy with Strong Thunderstorms 64 18 64 18 100 100 W 29 46 29.62 1003 2 3 0.02 0.51
6:53 pm 18:53 Cloudy with Strong Thunderstorms 65 18.3 65 18.3 100 100 NW 15 24 29.56 1001 1 1 0.25 6.35
7:08 pm 19:08 Cloudy with Thunderstorms 66 18.9 65 18.3 96 96 W 8 13 29.56 1001 4 6 0.36 9.14
7:22 pm 19:22 Cloudy with Thunderstorms 65 18.3 65 18.3 100 100 ESE 14 22 29.56 1001 5 8 0.38 9.65
7:37 pm 19:37 Cloudy with Thunderstorms 65 18.3 65 18.3 100 100 ENE 12 19 29.47 998 6 10 0.42 10.67
7:45 pm 19:45 Cloudy with Nearby Thunderstorms 65 18.3 65 18.3 100 100 E 10 17 29.47 998 6 10 0.45 11.43
7:53 pm 19:53 Mostly Cloudy with Light Rain 65 18.3 65 18.3 100 100 ESE 6 9 29.51 999 7 11 0.46 11.68
7:59 pm 19:59 Mostly Cloudy with Light Rain 65 18.3 65 18.3 100 100 SE 7 11 29.50 999 10 16 0.00 0.03
8:21 pm 20:21 Mostly Cloudy 65 18.3 65 18.3 100 100 S 9 15 29.56 1001 10 16 0.01 0.25
8:53 pm 20:53 Cloudy 66 18.9 65 18.3 96 96 S 8 13 29.55 1001 10 16 0.01 0.25
8:56 pm 20:56 Cloudy 66 18.9 65 18.3 96 96 S 8 13 29.53 1000 10 16 0.00 0.00
9:53 pm 21:53 Cloudy 67 19.4 66 18.9 97 97 SW 8 13 29.54 1001 10 16 0.00 0.00
10:21 pm 22:21 Cloudy 67 19.4 66 18.9 97 97 SW 13 20 29.53 1000 10 16 0.00 0.00
10:30 pm 22:30 Cloudy 67 19.4 66 18.9 97 97 SW 15 24 29.53 1000 10 16 0.00 0.00
10:53 pm 22:53 Cloudy 67 19.4 66 18.9 97 97 SW 13 20 29.56 1001 10 16 0.00 0.00
11:50 pm 23:50 Cloudy 66 19 64 18 94 94 WSW 18 30 29.56 1001 10 16 0.00 0.00
11:53 pm 23:53 Cloudy 67 19.4 65 18.3 93 93 WSW 20 31 29.58 1002 10 16 0.00 0.00

Powered by AerisWeather